• In Russia
  • List of Countries
  • For 7 days
  • Water Temperature
  • Satellite Maps
  • Weather Map
  • Weather Widgets
  • user-avatar
    Login

    Hourly Weather Albany

    Today, 28 March, Tuesday

    Time Temperature Precipitation Wind Pressure Humidity
    00:00 +15°C° 0 mm 5 mps 759 mmHg 85%
    01:00 +15°C° 0 mm 5 mps 759 mmHg 86%
    02:00 +15°C° 0 mm 5 mps 759 mmHg 86%
    03:00 +15°C° 0 mm 5 mps 759 mmHg 86%
    04:00 +15°C° 0 mm 5 mps 759 mmHg 86%
    05:00 +15°C° 0 mm 5 mps 759 mmHg 86%
    06:00 +16°C° 0 mm 6 mps 759 mmHg 84%
    07:00 +16°C° 0 mm 6 mps 759 mmHg 82%
    08:00 +16°C° 0 mm 6 mps 759 mmHg 79%
    09:00 +17°C° 0.1 mm 6 mps 759 mmHg 75%
    10:00 +17°C° 0.1 mm 6 mps 759 mmHg 71%
    11:00 +18°C° 0.1 mm 7 mps 759 mmHg 67%
    12:00 +18°C° 0.1 mm 7 mps 759 mmHg 66%
    13:00 +18°C° 0.1 mm 7 mps 759 mmHg 66%
    14:00 +18°C° 0.1 mm 7 mps 759 mmHg 65%
    15:00 +18°C° 0.1 mm 7 mps 759 mmHg 69%
    16:00 +17°C° 0.1 mm 7 mps 759 mmHg 72%
    17:00 +16°C° 0.1 mm 8 mps 759 mmHg 76%
    18:00 +16°C° 0 mm 7 mps 760 mmHg 73%
    19:00 +15°C° 0 mm 7 mps 761 mmHg 70%
    20:00 +15°C° 0 mm 7 mps 762 mmHg 68%
    21:00 +14°C° 0 mm 7 mps 762 mmHg 67%
    22:00 +14°C° 0 mm 6 mps 763 mmHg 66%
    23:00 +14°C° 0 mm 6 mps 763 mmHg 65%

    Tomorrow, 29 March, Wednesday

    Time Temperature Precipitation Wind Pressure Humidity
    00:00 +13°C° 0 mm 6 mps 764 mmHg 64%
    01:00 +13°C° 0 mm 5 mps 764 mmHg 63%
    02:00 +13°C° 0 mm 5 mps 764 mmHg 62%
    03:00 +13°C° 0 mm 5 mps 765 mmHg 62%
    04:00 +12°C° 0 mm 4 mps 765 mmHg 63%
    05:00 +12°C° 0 mm 4 mps 765 mmHg 63%
    06:00 +13°C° 0 mm 4 mps 766 mmHg 61%
    07:00 +13°C° 0 mm 4 mps 766 mmHg 59%
    08:00 +14°C° 0 mm 4 mps 767 mmHg 57%
    09:00 +14°C° 0 mm 4 mps 767 mmHg 56%
    10:00 +16°C° 0 mm 3 mps 767 mmHg 54%
    11:00 +16°C° 0 mm 3 mps 767 mmHg 53%
    12:00 +17°C° 0 mm 3 mps 767 mmHg 51%
    13:00 +17°C° 0 mm 3 mps 767 mmHg 50%
    14:00 +18°C° 0 mm 3 mps 767 mmHg 48%
    15:00 +17°C° 0 mm 4 mps 767 mmHg 51%
    16:00 +17°C° 0 mm 4 mps 767 mmHg 53%
    17:00 +15°C° 0 mm 4 mps 766 mmHg 55%
    18:00 +14°C° 0 mm 4 mps 767 mmHg 59%
    19:00 +13°C° 0 mm 4 mps 767 mmHg 64%
    20:00 +12°C° 0 mm 4 mps 767 mmHg 68%
    21:00 +12°C° 0 mm 4 mps 767 mmHg 69%
    22:00 +12°C° 0 mm 4 mps 767 mmHg 71%
    23:00 +12°C° 0 mm 4 mps 767 mmHg 72%

    Day after tomorrow, 30 March, Thursday

    Time Temperature Precipitation Wind Pressure Humidity
    00:00 +11°C° 0 mm 4 mps 767 mmHg 74%
    01:00 +11°C° 0 mm 4 mps 767 mmHg 75%
    02:00 +11°C° 0 mm 4 mps 766 mmHg 77%
    03:00 +11°C° 0 mm 4 mps 766 mmHg 77%
    04:00 +10°C° 0 mm 4 mps 766 mmHg 78%
    05:00 +10°C° 0 mm 4 mps 766 mmHg 78%
    06:00 +11°C° 0 mm 4 mps 766 mmHg 74%
    07:00 +12°C° 0 mm 4 mps 766 mmHg 70%
    08:00 +13°C° 0 mm 4 mps 766 mmHg 66%
    09:00 +15°C° 0 mm 4 mps 766 mmHg 59%
    10:00 +18°C° 0 mm 3 mps 766 mmHg 51%
    11:00 +21°C° 0 mm 3 mps 765 mmHg 43%
    12:00 +23°C° 0 mm 2 mps 765 mmHg 40%
    13:00 +24°C° 0 mm 2 mps 764 mmHg 37%
    14:00 +25°C° 0 mm 2 mps 764 mmHg 34%
    15:00 +24°C° 0 mm 2 mps 763 mmHg 40%
    16:00 +23°C° 0 mm 2 mps 763 mmHg 46%
    17:00 +20°C° 0 mm 3 mps 763 mmHg 51%
    18:00 +19°C° 0 mm 3 mps 764 mmHg 59%
    19:00 +17°C° 0 mm 2 mps 764 mmHg 67%
    20:00 +15°C° 0 mm 2 mps 765 mmHg 75%
    21:00 +15°C° 0 mm 2 mps 765 mmHg 78%
    22:00 +14°C° 0 mm 2 mps 765 mmHg 81%
    23:00 +14°C° 0 mm 1 mps 765 mmHg 84%

    31 March, Friday

    Time Temperature Precipitation Wind Pressure Humidity
    00:00 +14°C° 0 mm 1 mps 765 mmHg 85%
    01:00 +13°C° 0 mm 1 mps 765 mmHg 87%
    02:00 +13°C° 0 mm 2 mps 764 mmHg 89%
    03:00 +13°C° 0 mm 2 mps 764 mmHg 88%
    04:00 +13°C° 0 mm 2 mps 764 mmHg 88%
    05:00 +13°C° 0 mm 2 mps 764 mmHg 88%
    06:00 +14°C° 0 mm 2 mps 765 mmHg 82%
    07:00 +16°C° 0 mm 2 mps 765 mmHg 76%
    08:00 +17°C° 0 mm 2 mps 765 mmHg 70%
    09:00 +18°C° 0 mm 2 mps 765 mmHg 64%
    10:00 +19°C° 0 mm 3 mps 765 mmHg 59%
    11:00 +21°C° 0 mm 3 mps 765 mmHg 53%
    12:00 +21°C° 0 mm 3 mps 765 mmHg 52%
    13:00 +21°C° 0 mm 3 mps 765 mmHg 51%
    14:00 +22°C° 0 mm 3 mps 764 mmHg 51%
    15:00 +21°C° 0 mm 4 mps 765 mmHg 55%
    16:00 +20°C° 0 mm 4 mps 765 mmHg 59%
    17:00 +19°C° 0 mm 4 mps 765 mmHg 63%
    18:00 +18°C° 0 mm 4 mps 765 mmHg 69%
    19:00 +17°C° 0 mm 4 mps 766 mmHg 75%
    20:00 +15°C° 0 mm 4 mps 766 mmHg 81%
    21:00 +15°C° 0 mm 4 mps 767 mmHg 82%
    22:00 +15°C° 0 mm 4 mps 767 mmHg 84%
    23:00 +15°C° 0 mm 4 mps 767 mmHg 85%

    1 April, Saturday

    Time Temperature Precipitation Wind Pressure Humidity
    00:00 +15°C° 0 mm 5 mps 767 mmHg 87%
    01:00 +14°C° 0 mm 5 mps 766 mmHg 88%
    02:00 +14°C° 0 mm 5 mps 766 mmHg 90%
    03:00 +14°C° 0 mm 5 mps 766 mmHg 89%
    04:00 +15°C° 0 mm 5 mps 766 mmHg 89%
    05:00 +15°C° 0 mm 5 mps 766 mmHg 88%
    06:00 +15°C° 0 mm 5 mps 767 mmHg 86%
    07:00 +16°C° 0 mm 5 mps 767 mmHg 83%
    08:00 +16°C° 0 mm 5 mps 767 mmHg 81%
    09:00 +19°C° 0 mm 5 mps 767 mmHg 74%
    10:00 +20°C° 0 mm 5 mps 767 mmHg 67%
    11:00 +21°C° 0 mm 5 mps 767 mmHg 59%
    12:00 +22°C° 0 mm 5 mps 766 mmHg 56%
    13:00 +23°C° 0 mm 5 mps 765 mmHg 53%
    14:00 +23°C° 0 mm 6 mps 765 mmHg 50%
    15:00 +23°C° 0 mm 6 mps 765 mmHg 54%
    16:00 +22°C° 0 mm 6 mps 765 mmHg 58%
    17:00 +21°C° 0 mm 6 mps 765 mmHg 62%
    18:00 +20°C° 0 mm 6 mps 765 mmHg 68%
    19:00 +19°C° 0 mm 6 mps 765 mmHg 73%
    20:00 +17°C° 0 mm 6 mps 766 mmHg 79%
    21:00 +16°C° 0 mm 6 mps 765 mmHg 80%
    22:00 +16°C° 0 mm 6 mps 765 mmHg 81%
    23:00 +16°C° 0 mm 6 mps 765 mmHg 81%

    2 April, Sunday

    Time Temperature Precipitation Wind Pressure Humidity
    00:00 +16°C° 0 mm 6 mps 765 mmHg 83%
    01:00 +16°C° 0 mm 6 mps 765 mmHg 84%
    02:00 +16°C° 0 mm 5 mps 764 mmHg 85%
    03:00 +15°C° 0 mm 5 mps 764 mmHg 84%
    04:00 +15°C° 0 mm 5 mps 764 mmHg 84%
    05:00 +15°C° 0 mm 5 mps 764 mmHg 83%
    06:00 +16°C° 0 mm 5 mps 764 mmHg 74%
    07:00 +17°C° 0 mm 5 mps 765 mmHg 65%
    08:00 +19°C° 0 mm 5 mps 765 mmHg 56%
    09:00 +21°C° 0 mm 5 mps 764 mmHg 48%
    10:00 +25°C° 0 mm 4 mps 764 mmHg 40%
    11:00 +27°C° 0 mm 4 mps 764 mmHg 32%
    12:00 +28°C° 0 mm 4 mps 763 mmHg 30%
    13:00 +29°C° 0 mm 4 mps 763 mmHg 29%
    14:00 +30°C° 0 mm 5 mps 762 mmHg 27%
    15:00 +29°C° 0 mm 5 mps 762 mmHg 30%
    16:00 +28°C° 0 mm 5 mps 762 mmHg 34%
    17:00 +27°C° 0 mm 5 mps 762 mmHg 37%
    18:00 +25°C° 0 mm 5 mps 763 mmHg 42%
    19:00 +23°C° 0 mm 5 mps 763 mmHg 46%
    20:00 +21°C° 0 mm 5 mps 763 mmHg 50%
    21:00 +21°C° 0 mm 5 mps 763 mmHg 50%
    22:00 +20°C° 0 mm 5 mps 763 mmHg 51%
    23:00 +20°C° 0 mm 5 mps 763 mmHg 51%
    Show more